Regional Weather Roundup
Issued by NWS New Orleans/Baton Rouge, LA

Home | Current Version | Previous Version | Graphics & Text | Print | Product List | Glossary On
Versions: 1 2 3 4 5 6 7 8 9 10 11 12 13 14 15 16 17 18 19 20 21 22 23 24 25 26 27 28 29 30 31 32 33 34 35 36 37 38 39 40 41 42 43 44 45 46 47 48 49 50
937
ASUS44 KLIX 230401
RWRLIX
NEW ORLEANS REGIONAL WEATHER ROUNDUP
NATIONAL WEATHER SERVICE NEW ORLEANS LA
1100 PM CDT TUE APR 22 2014

NOTE: "FAIR" INDICATES FEW OR NO CLOUDS BELOW 12,000 FEET WITH NO
      SIGNIFICANT WEATHER AND/OR OBSTRUCTIONS TO VISIBILITY.
      SKY/WX - SKY CONDITION AND SIGNIFICANT WEATHER.
      TMP - AIR TEMPERATURE.     DP    - DEWPOINT TEMPERATURE.
      RH  - RELATIVE HUMIDITY.   PRES  - PRESSURE.
      HI  - HEAT INDEX.          WCI   - WIND CHILL INDEX.

*  THESE STATIONS ARE NOT NWS OR FAA STATIONS AND ARE NOT UNDER
   NWS QUALITY CONTROL.

LAZ038-040-048-061>063-065>067-069-230500-
SOUTHEAST LOUISIANA

CITY           SKY/WX    TMP DP  RH WIND       PRES   REMARKS
N.O. AUDUBON     N/A     67  64  91 MISG        N/A
N.O. INTL ARPT PTCLDY    68  63  84 N3        29.93S
N.O. LAKEFRONT CLEAR     69  66  90 N6        29.94S
N.O. DOWNTOWN*   N/A     72  61  68 N5        29.94S
SLIDELL        CLEAR     63  61  93 CALM      29.93S
BATON ROUGE    CLEAR     65  60  84 CALM      29.95R
BOOTHVILLE     CLEAR     70  69  97 W6        29.93S FOG
BELLE CHASSE   PTCLDY    63  60  90 CALM      29.93S FOG
BOGALUSA*        N/A     61  57  88 CALM      29.95F
GALLIANO*      NOT AVBL
NEW ROADS*     NOT AVBL
GONZALES*        N/A     64  63  97 CALM      29.94S
HAMMOND*       NOT AVBL
HOUMA*         NOT AVBL
PORT FOURCHON* PTCLDY    72  68  88 W8        29.95F

$$

MSZ070-080>082-230500-
SOUTHERN MISSISSIPPI

CITY           SKY/WX    TMP DP  RH WIND       PRES   REMARKS
MCCOMB         CLEAR     61  58  90 CALM      29.95S
GULFPORT       PTCLDY    71  63  75 N7        29.92R
BILOXI         NOT AVBL
PASCAGOULA     CLEAR     65  64  97 CALM      29.92S FOG

$$

COASTAL OBSERVATIONS
LAKE AND NEARSHORE STATIONS

STATION/POSITION TIME  TEMP    WIND        PRES    WAVE
                       AIR SEA DIR/SP/G            HT/PER
                 (UTC) (F)     (DEG/KT/KT) (MB)    (FT/S)
PASCAGOULA       0300   70     260/  3/  5 1012.5
WAVELAND YACHT   0300   70 72  340/  5/  7 1012.6
GRAND ISLE       0300   72 72  280/  9/ 12 1014.1
SOUTHWEST PASS   0300   67 60  280/ 11/ 14 1014.0
NEW CANAL        0300   71 69  360/  4/  4 1014.1
SHELL BEACH      0300   71 68  320/  7/  8 1013.3

OFFSHORE STATIONS

STATION/POSITION TIME  TEMP    WIND        PRES    WAVE
                       AIR SEA DIR/SP/G            HT/PER
                 (UTC) (F)     (DEG/KT/KT) (MB)    (FT/S)
64 S DAUPHIN ISL 0337   70 69  260/  8/ 10 1013.4

$$




USA.gov is the U.S. government's official web portal to all federal, state and local government web resources and services.